This demonstration page uses our WeatherBlox Daily Observations layout. Learn more.

Left ArrowRight Arrow

39.51506, -84.39828

Hourly Observations for April 20, 2016

Temp ( °F °C ) Dew Point ( °F °C ) Humidity (%) Winds ( mph kmh ) Pressure ( in mb ) Visibility ( mi km ) Precip ( " mm )
12:15 am 00:15 Clear 61 16 43 5.9 51 51 NNE 8 13 30.21 1023 10 16 N/A
12:35 am 00:35 Clear 60 15.8 43 6.3 53 53 NNE 8 13 30.21 1023 10 16 N/A
12:55 am 00:55 Clear 60 15.3 44 6.4 56 56 NNE 8 13 30.18 1022 10 16 N/A
1:15 am 01:15 Clear 60 15.3 44 6.7 57 57 undefined N/A 30.18 1022 10 16 N/A
1:35 am 01:35 Clear 58 14.3 43 6.3 59 59 NE 6 9 30.18 1022 10 16 N/A
1:55 am 01:55 Clear 57 13.8 44 6.5 62 62 undefined N/A 30.18 1022 10 16 N/A
2:15 am 02:15 Clear 57 13.8 44 6.5 62 62 undefined N/A 30.18 1022 10 16 N/A
2:35 am 02:35 Clear 57 13.8 44 6.6 62 62 undefined N/A 30.18 1022 10 16 N/A
2:55 am 02:55 Clear 57 13.8 44 6.6 62 62 undefined N/A 30.18 1022 10 16 N/A
3:15 am 03:15 Clear 57 13.8 44 6.5 62 62 undefined N/A 30.18 1022 10 16 N/A
3:35 am 03:35 Clear 55 12.6 42 5.7 63 63 NNE 5 7 30.18 1022 10 16 N/A
3:55 am 03:55 Clear 56 13.4 43 5.9 61 61 undefined N/A 30.18 1022 10 16 N/A
4:15 am 04:15 Clear 56 13.6 42 5.4 58 58 undefined N/A 30.18 1022 10 16 N/A
4:35 am 04:35 Clear 55 12.6 40 4.3 57 57 undefined N/A 30.18 1022 10 16 N/A
4:55 am 04:55 Clear 55 12.5 40 4.2 57 57 NNE 5 7 30.18 1022 10 16 N/A
5:15 am 05:15 Clear 55 12.5 40 4.3 58 58 undefined N/A 30.18 1022 10 16 N/A
5:35 am 05:35 Clear 55 12.5 39 4.1 57 57 NNE 6 9 30.18 1022 10 16 N/A
5:55 am 05:55 Clear 55 12.5 39 3.8 56 56 NNE 6 9 30.18 1022 10 16 N/A
6:15 am 06:15 Clear 55 12.5 38 3.4 54 54 undefined N/A 30.18 1022 10 16 N/A
6:35 am 06:35 Clear 55 12.5 35 1.8 48 48 NNE 6 9 30.18 1022 10 16 N/A
6:55 am 06:55 Sunny 53 11.5 35 1.8 52 52 NNE 6 9 30.18 1022 10 16 N/A
7:15 am 07:15 Sunny 55 12.5 36 2.4 50 50 NNE 7 11 30.18 1022 10 16 N/A
7:35 am 07:35 Sunny 55 12.5 35 1.9 49 49 NNE 3 6 30.18 1022 10 16 N/A
7:55 am 07:55 Sunny 55 12.5 34 1.2 46 46 NNE 5 7 30.18 1022 10 16 N/A
8:15 am 08:15 Sunny 55 12.7 33 0.4 43 43 N N/A 30.18 1022 10 16 N/A
8:35 am 08:35 Sunny 57 13.8 33 0.7 41 41 NNE 6 9 30.18 1022 10 16 N/A
8:55 am 08:55 Sunny 57 13.8 32 undefined 39 39 NNE 6 9 30.18 1022 10 16 N/A
9:15 am 09:15 Sunny 60 15.3 33 0.4 36 36 NNE 8 13 30.18 1022 10 16 N/A
9:35 am 09:35 Sunny 60 15.4 31 -0.3 34 34 NNE 8 13 30.18 1022 10 16 N/A
9:55 am 09:55 Sunny 61 16 31 -0.7 32 32 NNE 6 9 30.18 1022 10 16 N/A
10:15 am 10:15 Sunny 63 17 33 0.4 33 33 SSE 5 7 30.15 1021 10 16 N/A
10:35 am 10:35 Sunny 66 18.9 35 1.6 32 32 SSE 8 13 30.12 1020 10 16 N/A
10:55 am 10:55 Sunny 67 19.7 37 2.5 32 32 NNE 9 15 30.12 1020 10 16 N/A
11:15 am 11:15 Sunny 69 20.8 38 3.3 32 32 NNE 8 13 30.12 1020 10 16 N/A
11:35 am 11:35 Sunny 69 20.8 38 3.3 32 32 SSE 8 13 30.12 1020 10 16 N/A
11:55 am 11:55 Sunny 69 20.8 38 3.2 31 31 ESE 5 7 30.12 1020 10 16 N/A
12:15 pm 12:15 Sunny 72 22.1 39 3.9 30 30 SSE 7 11 30.12 1020 10 16 N/A
12:35 pm 12:35 Sunny 73 22.6 40 4.4 31 31 undefined N/A 30.12 1020 10 16 N/A
12:55 pm 12:55 Sunny 74 23.6 42 5.5 31 31 SE 8 13 30.09 1019 10 16 N/A
1:15 pm 13:15 Sunny 74 23.6 40 4.2 28 28 SSE 7 11 30.09 1019 10 16 N/A
1:35 pm 13:35 Partly Cloudy 74 23.6 39 4 28 28 SE 8 13 30.09 1019 10 16 N/A
1:55 pm 13:55 Sunny 77 25.1 42 5.4 28 28 NE 7 11 30.09 1019 10 16 N/A
2:15 pm 14:15 Partly Cloudy 77 25.1 41 4.8 27 27 E 7 11 30.06 1018 10 16 N/A
2:35 pm 14:35 Sunny 77 25.1 41 4.8 27 27 NNE 8 13 30.06 1018 10 16 N/A
2:55 pm 14:55 Sunny 77 25.1 39 3.8 25 25 undefined N/A 30.06 1018 10 16 N/A
3:15 pm 15:15 Sunny 80 26.5 42 5.5 26 26 SSE 9 15 30.03 1017 10 16 N/A
3:35 pm 15:35 Sunny 80 26.5 40 4.4 24 24 SE 9 15 30.03 1017 10 16 N/A
3:55 pm 15:55 Sunny 80 26.7 40 4.7 24 24 undefined N/A 30.03 1017 10 16 N/A
4:15 pm 16:15 Sunny 80 26.5 41 4.8 25 25 SSE 5 7 30.00 1016 10 16 N/A
4:35 pm 16:35 Sunny 80 26.5 41 4.9 25 25 SSE 6 9 30.00 1016 10 16 N/A
4:55 pm 16:55 Sunny 80 26.9 40 4.3 23 23 SSE 8 13 30.00 1016 10 16 N/A
5:15 pm 17:15 Sunny 80 26.5 39 4 23 23 SSE 10 17 29.97 1015 10 16 N/A
5:35 pm 17:35 Sunny 81 27.4 38 3.4 21 21 undefined N/A 29.97 1015 10 16 N/A
5:55 pm 17:55 Sunny 80 26.5 38 3.4 23 23 SSE 9 15 29.97 1015 10 16 N/A
6:15 pm 18:15 Sunny 82 27.5 38 3.4 21 21 SSE 9 15 29.97 1015 10 16 N/A
6:35 pm 18:35 Sunny 81 27.2 39 4 23 23 NNE 8 13 29.97 1015 10 16 N/A
6:55 pm 18:55 Mostly Cloudy 80 26.5 42 5.5 26 26 SSE 7 11 29.97 1015 10 16 N/A
7:15 pm 19:15 Partly Cloudy 80 26.6 36 2.3 21 21 undefined N/A 29.97 1015 10 16 N/A
7:35 pm 19:35 Sunny 80 26.5 38 3.5 23 23 undefined N/A 29.94 1014 10 16 N/A
7:55 pm 19:55 Sunny 78 25.6 38 3.5 24 24 SSE 6 9 29.94 1014 10 16 N/A
8:15 pm 20:15 Sunny 76 24.7 42 5.4 29 29 SSE 5 7 29.94 1014 10 16 N/A
8:35 pm 20:35 Partly Cloudy 74 23.6 45 7.3 35 35 S 6 9 29.94 1014 10 16 N/A
8:55 pm 20:55 Mostly Cloudy 74 23.6 41 5.2 30 30 SSE 6 9 29.94 1014 10 16 N/A
9:15 pm 21:15 Partly Cloudy 74 23.3 47 8.2 38 38 SSE 3 6 29.94 1014 10 16 N/A
9:35 pm 21:35 Partly Cloudy 69 20.8 50 10.2 51 51 SSE 3 6 29.94 1014 10 16 N/A
9:55 pm 21:55 Clear 69 20.8 47 8.1 44 44 undefined N/A 29.94 1014 10 16 N/A
10:15 pm 22:15 Clear 69 20.8 41 5.2 36 36 NNE 7 11 29.94 1014 10 16 N/A
10:35 pm 22:35 Clear 74 23.4 38 3.2 27 27 ENE 8 13 29.94 1014 10 16 N/A
10:55 pm 22:55 Clear 72 22.2 38 3.6 30 30 undefined N/A 29.94 1014 10 16 N/A
11:15 pm 23:15 Partly Cloudy 69 20.8 41 4.9 35 35 N N/A 29.94 1014 10 16 N/A
11:35 pm 23:35 Partly Cloudy 69 20.8 45 7.3 42 42 undefined N/A 29.94 1014 10 16 N/A
11:55 pm 23:55 Partly Cloudy 67 19.2 45 7.4 47 47 undefined N/A 29.94 1014 10 16 N/A

Powered by AerisWeather